Time,TemperatureF,DewpointF,PressureIn,WindDirection,WindDirectionDegrees,WindSpeedMPH,WindSpeedGustMPH,Humidity,HourlyPrecipIn,Conditions,Clouds,dailyrainin,SoftwareType,DateUTC
2013-02-21 00:03:00,14.8,10.0,30.23,SSE,147,4.0,16.0,81,0.00,,,0.00,weatherlink.com 1.10,2013-02-21 05:03:00,
2013-02-21 00:18:00,14.8,10.0,30.24,SW,226,11.0,14.0,81,0.00,,,0.00,weatherlink.com 1.10,2013-02-21 05:18:00,
2013-02-21 00:33:00,14.7,10.0,30.24,ENE,66,6.0,12.0,81,0.00,,,0.00,weatherlink.com 1.10,2013-02-21 05:33:00,
2013-02-21 00:48:00,14.6,10.0,30.25,SW,219,14.0,14.0,81,0.00,,,0.00,weatherlink.com 1.10,2013-02-21 05:48:00,
2013-02-21 01:03:00,14.4,10.0,30.24,SW,229,6.0,17.0,81,0.00,,,0.00,weatherlink.com 1.10,2013-02-21 06:03:00,
2013-02-21 01:18:00,14.3,10.0,30.23,SW,227,10.0,12.0,81,0.00,,,0.00,weatherlink.com 1.10,2013-02-21 06:18:00,
2013-02-21 01:33:00,14.2,10.0,30.23,SSW,202,7.0,13.0,82,0.00,,,0.00,weatherlink.com 1.10,2013-02-21 06:33:00,
2013-02-21 01:48:00,14.1,9.0,30.23,South,172,4.0,10.0,81,0.00,,,0.00,weatherlink.com 1.10,2013-02-21 06:48:00,
2013-02-21 02:03:00,14.1,9.0,30.23,East,89,4.0,13.0,81,0.00,,,0.00,weatherlink.com 1.10,2013-02-21 07:03:00,
2013-02-21 02:18:00,14.1,10.0,30.23,SSW,201,8.0,17.0,82,0.00,,,0.00,weatherlink.com 1.10,2013-02-21 07:18:00,
2013-02-21 02:33:00,14.0,10.0,30.23,SSW,211,5.0,12.0,83,0.00,,,0.00,weatherlink.com 1.10,2013-02-21 07:33:00,
2013-02-21 02:48:00,13.9,10.0,30.23,SW,221,4.0,9.0,83,0.00,,,0.00,weatherlink.com 1.10,2013-02-21 07:48:00,
2013-02-21 03:03:00,13.8,9.0,30.23,South,183,4.0,15.0,82,0.00,,,0.00,weatherlink.com 1.10,2013-02-21 08:03:00,
2013-02-21 03:18:00,13.7,9.0,30.23,SW,221,5.0,10.0,82,0.00,,,0.00,weatherlink.com 1.10,2013-02-21 08:18:00,
2013-02-21 03:33:00,13.7,9.0,30.23,SSW,208,6.0,18.0,81,0.00,,,0.00,weatherlink.com 1.10,2013-02-21 08:33:00,
2013-02-21 03:48:00,13.7,9.0,30.23,SW,219,5.0,13.0,82,0.00,,,0.00,weatherlink.com 1.10,2013-02-21 08:48:00,
2013-02-21 04:03:00,13.7,10.0,30.23,SW,217,3.0,12.0,83,0.00,,,0.00,weatherlink.com 1.10,2013-02-21 09:03:00,
2013-02-21 04:18:00,13.6,9.0,30.24,SSW,200,4.0,12.0,83,0.00,,,0.00,weatherlink.com 1.10,2013-02-21 09:18:00,
2013-02-21 04:33:00,13.6,10.0,30.24,SSW,210,5.0,12.0,84,0.00,,,0.00,weatherlink.com 1.10,2013-02-21 09:33:00,
2013-02-21 04:48:00,13.5,10.0,30.24,SW,226,5.0,12.0,84,0.00,,,0.00,weatherlink.com 1.10,2013-02-21 09:48:00,
2013-02-21 05:03:00,13.6,9.0,30.26,NE,43,2.0,9.0,83,0.00,,,0.00,weatherlink.com 1.10,2013-02-21 10:03:00,
2013-02-21 05:18:00,13.6,9.0,30.26,SSW,205,7.0,13.0,82,0.00,,,0.00,weatherlink.com 1.10,2013-02-21 10:18:00,
2013-02-21 05:33:00,13.5,9.0,30.27,SSE,166,4.0,10.0,82,0.00,,,0.00,weatherlink.com 1.10,2013-02-21 10:33:00,
2013-02-21 05:48:00,13.4,9.0,30.27,SSE,166,6.0,10.0,83,0.00,,,0.00,weatherlink.com 1.10,2013-02-21 10:48:00,
2013-02-21 06:03:00,13.5,9.0,30.28,SW,218,4.0,13.0,81,0.00,,,0.00,weatherlink.com 1.10,2013-02-21 11:03:00,
2013-02-21 06:18:00,13.5,9.0,30.27,SE,142,16.0,16.0,81,0.00,,,0.00,weatherlink.com 1.10,2013-02-21 11:18:00,
2013-02-21 06:33:00,13.5,8.0,30.29,SSW,193,7.0,13.0,80,0.00,,,0.00,weatherlink.com 1.10,2013-02-21 11:33:00,
2013-02-21 06:48:00,13.5,8.0,30.29,SSW,210,5.0,16.0,79,0.00,,,0.00,weatherlink.com 1.10,2013-02-21 11:48:00,
2013-02-21 07:03:00,13.4,8.0,30.29,SSW,198,4.0,11.0,79,0.00,,,0.00,weatherlink.com 1.10,2013-02-21 12:03:00,
2013-02-21 07:18:00,13.6,8.0,30.30,SSW,205,7.0,11.0,79,0.00,,,0.00,weatherlink.com 1.10,2013-02-21 12:18:00,
2013-02-21 07:33:00,13.9,9.0,30.31,SSE,160,4.0,11.0,79,0.00,,,0.00,weatherlink.com 1.10,2013-02-21 12:33:00,
2013-02-21 07:48:00,14.2,9.0,30.31,SSE,148,5.0,11.0,79,0.00,,,0.00,weatherlink.com 1.10,2013-02-21 12:48:00,
2013-02-21 08:03:00,15.1,10.0,30.32,South,177,3.0,9.0,80,0.00,,,0.00,weatherlink.com 1.10,2013-02-21 13:03:00,
2013-02-21 08:18:00,15.7,11.0,30.32,SSW,203,10.0,10.0,81,0.00,,,0.00,weatherlink.com 1.10,2013-02-21 13:18:00,
2013-02-21 08:33:00,15.6,11.0,30.33,SW,233,1.0,9.0,80,0.00,,,0.00,weatherlink.com 1.10,2013-02-21 13:33:00,
2013-02-21 08:48:00,14.7,10.0,30.34,South,177,4.0,10.0,82,0.00,,,0.00,weatherlink.com 1.10,2013-02-21 13:48:00,
2013-02-21 09:03:00,14.6,9.0,30.34,SW,221,3.0,11.0,78,0.00,,,0.00,weatherlink.com 1.10,2013-02-21 14:03:00,
2013-02-21 09:19:00,16.0,9.0,30.34,ENE,78,5.0,11.0,74,0.00,,,0.00,weatherlink.com 1.10,2013-02-21 14:19:00,
2013-02-21 09:34:00,16.3,9.0,30.35,SSW,195,4.0,13.0,73,0.00,,,0.00,weatherlink.com 1.10,2013-02-21 14:34:00,
2013-02-21 09:49:00,17.4,10.0,30.35,East,94,3.0,10.0,72,0.00,,,0.00,weatherlink.com 1.10,2013-02-21 14:49:00,
2013-02-21 10:04:00,16.8,9.0,30.36,South,177,6.0,13.0,71,0.00,,,0.00,weatherlink.com 1.10,2013-02-21 15:04:00,
2013-02-21 10:19:00,16.4,9.0,30.36,ESE,113,6.0,16.0,71,0.00,,,0.00,weatherlink.com 1.10,2013-02-21 15:19:00,
2013-02-21 10:34:00,16.3,8.0,30.36,South,176,10.0,10.0,70,0.00,,,0.00,weatherlink.com 1.10,2013-02-21 15:34:00,
2013-02-21 10:49:00,16.1,8.0,30.38,ESE,108,5.0,16.0,71,0.00,,,0.00,weatherlink.com 1.10,2013-02-21 15:49:00,
2013-02-21 11:04:00,15.5,8.0,30.39,South,189,6.0,8.0,71,0.00,,,0.00,weatherlink.com 1.10,2013-02-21 16:04:00,
2013-02-21 11:19:00,15.7,8.0,30.40,SSW,204,6.0,10.0,71,0.00,,,0.00,weatherlink.com 1.10,2013-02-21 16:19:00,
2013-02-21 11:34:00,15.2,7.0,30.41,SSW,207,5.0,-999.0,71,-99.99,,,0.00,weatherlink.com 1.10,2013-02-21 16:34:00,
2013-02-21 11:49:00,14.8,7.0,30.41,SW,220,2.0,10.0,72,0.00,,,0.00,weatherlink.com 1.10,2013-02-21 16:49:00,
2013-02-21 12:04:00,15.1,8.0,30.40,SE,129,6.0,12.0,72,0.00,,,0.00,weatherlink.com 1.10,2013-02-21 17:04:00,
2013-02-21 12:19:00,16.0,8.0,30.40,SSW,207,5.0,6.0,71,0.00,,,0.00,weatherlink.com 1.10,2013-02-21 17:19:00,
2013-02-21 12:34:00,17.5,9.0,30.39,ESE,113,8.0,9.0,69,0.00,,,0.00,weatherlink.com 1.10,2013-02-21 17:34:00,
2013-02-21 12:49:00,17.7,9.0,30.39,SE,134,3.0,10.0,68,0.00,,,0.00,weatherlink.com 1.10,2013-02-21 17:49:00,
2013-02-21 13:04:00,17.3,8.0,30.39,SSE,165,6.0,8.0,67,0.00,,,0.00,weatherlink.com 1.10,2013-02-21 18:04:00,
2013-02-21 13:19:00,16.4,8.0,30.40,NNW,346,8.0,14.0,70,0.00,,,0.00,weatherlink.com 1.10,2013-02-21 18:19:00,
2013-02-21 13:34:00,16.4,8.0,30.41,SW,225,4.0,9.0,70,0.00,,,0.00,weatherlink.com 1.10,2013-02-21 18:34:00,
2013-02-21 13:49:00,16.5,9.0,30.41,ENE,57,2.0,7.0,71,0.00,,,0.00,weatherlink.com 1.10,2013-02-21 18:49:00,
2013-02-21 14:04:00,16.4,8.0,30.42,SW,221,1.0,7.0,70,0.00,,,0.00,weatherlink.com 1.10,2013-02-21 19:04:00,
2013-02-21 14:19:00,15.9,8.0,30.44,SSW,213,2.0,7.0,72,0.00,,,0.00,weatherlink.com 1.10,2013-02-21 19:19:00,
2013-02-21 14:34:00,15.8,8.0,30.43,North,356,8.0,10.0,72,0.00,,,0.00,weatherlink.com 1.10,2013-02-21 19:34:00,
2013-02-21 14:49:00,15.4,9.0,30.44,NW,311,2.0,13.0,74,0.00,,,0.00,weatherlink.com 1.10,2013-02-21 19:49:00,
2013-02-21 15:04:00,15.1,9.0,30.45,NNW,331,7.0,16.0,75,0.00,,,0.00,weatherlink.com 1.10,2013-02-21 20:04:00,
2013-02-21 15:19:00,15.7,9.0,30.45,ESE,108,2.0,8.0,74,0.00,,,0.00,weatherlink.com 1.10,2013-02-21 20:19:00,
2013-02-21 15:34:00,15.1,9.0,30.47,WSW,256,1.0,7.0,75,0.00,,,0.00,weatherlink.com 1.10,2013-02-21 20:34:00,
2013-02-21 15:49:00,14.6,9.0,30.48,WSW,243,0.0,11.0,77,0.00,,,0.00,weatherlink.com 1.10,2013-02-21 20:49:00,
2013-02-21 16:04:00,14.0,8.0,30.48,SSE,148,4.0,-999.0,78,-99.99,,,0.00,weatherlink.com 1.10,2013-02-21 21:04:00,
2013-02-21 16:19:00,13.7,8.0,30.50,East,93,5.0,12.0,79,0.00,,,0.00,weatherlink.com 1.10,2013-02-21 21:19:00,
2013-02-21 16:49:00,13.0,9.0,30.52,SSW,206,5.0,15.0,82,0.00,,,0.00,weatherlink.com 1.10,2013-02-21 21:49:00,
2013-02-21 17:04:00,12.9,8.0,30.52,SW,221,5.0,8.0,81,0.00,,,0.00,weatherlink.com 1.10,2013-02-21 22:04:00,
2013-02-21 17:19:00,12.7,8.0,30.53,NNE,25,1.0,10.0,82,0.00,,,0.00,weatherlink.com 1.10,2013-02-21 22:19:00,
2013-02-21 17:34:00,12.4,8.0,30.53,SW,215,4.0,13.0,82,0.00,,,0.00,weatherlink.com 1.10,2013-02-21 22:34:00,
2013-02-21 17:49:00,12.4,8.0,30.55,SSW,200,5.0,8.0,83,0.00,,,0.00,weatherlink.com 1.10,2013-02-21 22:49:00,
2013-02-21 18:05:00,12.3,8.0,30.55,SSW,210,2.0,9.0,84,0.00,,,0.00,weatherlink.com 1.10,2013-02-21 23:05:00,
2013-02-21 18:20:00,12.1,8.0,30.57,SSE,152,2.0,8.0,84,0.00,,,0.00,weatherlink.com 1.10,2013-02-21 23:20:00,
2013-02-21 18:35:00,11.8,8.0,30.58,NNW,338,6.0,11.0,84,0.00,,,0.00,weatherlink.com 1.10,2013-02-21 23:35:00,
2013-02-21 18:50:00,11.8,8.0,30.58,ESE,114,5.0,7.0,85,0.00,,,0.00,weatherlink.com 1.10,2013-02-21 23:50:00,
2013-02-21 19:05:00,11.9,8.0,30.58,SSW,212,3.0,7.0,85,0.00,,,0.00,weatherlink.com 1.10,2013-02-22 00:05:00,
2013-02-21 19:20:00,12.0,8.0,30.59,ESE,122,2.0,9.0,85,0.00,,,0.00,weatherlink.com 1.10,2013-02-22 00:20:00,
2013-02-21 19:35:00,11.8,8.0,30.60,SSW,200,3.0,6.0,85,0.00,,,0.00,weatherlink.com 1.10,2013-02-22 00:35:00,
2013-02-21 19:50:00,12.0,9.0,30.64,ESE,116,7.0,9.0,86,0.00,,,0.00,weatherlink.com 1.10,2013-02-22 00:50:00,
2013-02-21 20:05:00,12.1,9.0,30.65,SSE,153,4.0,8.0,85,0.00,,,0.00,weatherlink.com 1.10,2013-02-22 01:05:00,
2013-02-21 20:20:00,12.0,9.0,30.67,SSW,200,4.0,7.0,86,0.00,,,0.00,weatherlink.com 1.10,2013-02-22 01:20:00,
2013-02-21 20:35:00,12.1,9.0,30.68,SE,146,5.0,8.0,86,0.00,,,0.00,weatherlink.com 1.10,2013-02-22 01:35:00,
2013-02-21 20:50:00,12.1,9.0,30.70,SW,221,2.0,7.0,86,0.00,,,0.00,weatherlink.com 1.10,2013-02-22 01:50:00,
2013-02-21 21:05:00,12.2,9.0,30.71,SSW,195,2.0,8.0,87,0.00,,,0.00,weatherlink.com 1.10,2013-02-22 02:05:00,
2013-02-21 21:20:00,12.2,9.0,30.72,SSE,167,3.0,6.0,87,0.00,,,0.00,weatherlink.com 1.10,2013-02-22 02:20:00,
2013-02-21 21:35:00,12.3,9.0,30.72,SE,133,0.0,3.0,88,0.00,,,0.00,weatherlink.com 1.10,2013-02-22 02:35:00,
2013-02-21 22:05:00,12.2,9.0,30.74,SSW,204,3.0,5.0,88,0.00,,,0.00,weatherlink.com 1.10,2013-02-22 03:05:00,
2013-02-21 22:20:00,12.2,9.0,30.74,SSW,194,6.0,8.0,88,0.00,,,0.00,weatherlink.com 1.10,2013-02-22 03:20:00,
2013-02-21 22:35:00,12.2,9.0,30.74,SSW,200,2.0,3.0,88,0.00,,,0.00,weatherlink.com 1.10,2013-02-22 03:35:00,
2013-02-21 22:50:00,12.3,9.0,30.74,SSE,153,2.0,6.0,88,0.00,,,0.00,weatherlink.com 1.10,2013-02-22 03:50:00,
2013-02-21 23:05:00,12.4,10.0,30.75,SW,226,2.0,4.0,88,0.00,,,0.00,weatherlink.com 1.10,2013-02-22 04:05:00,
2013-02-21 23:20:00,12.5,10.0,30.75,SSW,203,4.0,5.0,88,0.00,,,0.00,weatherlink.com 1.10,2013-02-22 04:20:00,
2013-02-21 23:35:00,12.6,10.0,30.77,SSW,197,2.0,7.0,89,0.00,,,0.00,weatherlink.com 1.10,2013-02-22 04:35:00,
2013-02-21 23:50:00,12.8,10.0,30.76,SSW,207,1.0,5.0,89,0.00,,,0.00,weatherlink.com 1.10,2013-02-22 04:50:00,